Time,TemperatureF,DewpointF,PressureIn,WindDirection,WindDirectionDegrees,WindSpeedMPH,WindSpeedGustMPH,Humidity,HourlyPrecipIn,Conditions,Clouds,dailyrainin,SolarRadiationWatts/m^2,SoftwareType,DateUTC
2013-03-17 00:10:00,51.0,18.0,29.89,NW,307,12.0,26.0,27,-99.99,,,-99.99,0.000000,,2013-03-17 07:10:00,
2013-03-17 00:52:00,51.0,18.0,29.89,NW,307,12.0,26.0,27,-99.99,,,-99.99,0.000000,,2013-03-17 07:52:00,
2013-03-17 01:02:00,51.0,18.0,29.89,NW,307,12.0,26.0,27,-99.99,,,-99.99,0.000000,,2013-03-17 08:02:00,
2013-03-17 01:10:00,47.0,22.0,29.88,WNW,298,8.0,19.0,36,-99.99,,,-99.99,0.000000,,2013-03-17 08:10:00,
2013-03-17 01:52:00,47.0,22.0,29.88,WNW,298,8.0,19.0,36,-99.99,,,-99.99,0.000000,,2013-03-17 08:52:00,
2013-03-17 02:02:00,47.0,22.0,29.88,WNW,298,8.0,19.0,36,-99.99,,,-99.99,0.000000,,2013-03-17 09:02:00,
2013-03-17 02:10:00,43.0,22.0,29.90,West,279,3.0,7.0,43,-99.99,,,-99.99,0.000000,,2013-03-17 09:10:00,
2013-03-17 02:53:00,43.0,22.0,29.90,West,279,3.0,7.0,43,-99.99,,,-99.99,0.000000,,2013-03-17 09:53:00,
2013-03-17 03:03:00,43.0,22.0,29.90,West,279,3.0,7.0,43,-99.99,,,-99.99,0.000000,,2013-03-17 10:03:00,
2013-03-17 03:10:00,46.0,21.0,29.89,West,281,10.0,19.0,36,-99.99,,,-99.99,0.000000,,2013-03-17 10:10:00,
2013-03-17 03:52:00,46.0,21.0,29.89,West,281,10.0,19.0,36,-99.99,,,-99.99,0.000000,,2013-03-17 10:52:00,
2013-03-17 04:02:00,46.0,21.0,29.89,West,281,10.0,19.0,36,-99.99,,,-99.99,0.000000,,2013-03-17 11:02:00,
2013-03-17 04:10:00,46.0,21.0,29.89,West,265,10.0,20.0,36,-99.99,,,-99.99,0.000000,,2013-03-17 11:10:00,
2013-03-17 04:52:00,46.0,21.0,29.89,West,265,10.0,20.0,36,-99.99,,,-99.99,0.000000,,2013-03-17 11:52:00,
2013-03-17 05:02:00,46.0,21.0,29.89,West,265,10.0,20.0,36,-99.99,,,-99.99,0.000000,,2013-03-17 12:02:00,
2013-03-17 05:10:00,45.0,19.0,29.89,West,278,12.0,24.0,35,-99.99,,,-99.99,0.000000,,2013-03-17 12:10:00,
2013-03-17 05:52:00,45.0,19.0,29.89,West,278,12.0,24.0,35,-99.99,,,-99.99,0.000000,,2013-03-17 12:52:00,
2013-03-17 06:02:00,45.0,19.0,29.89,West,278,12.0,24.0,35,-99.99,,,-99.99,0.000000,,2013-03-17 13:02:00,
2013-03-17 06:10:00,44.0,18.0,29.89,WNW,284,15.0,27.0,35,-99.99,,,-99.99,0.000000,,2013-03-17 13:10:00,
2013-03-17 06:52:00,44.0,18.0,29.89,WNW,284,15.0,27.0,35,-99.99,,,-99.99,0.000000,,2013-03-17 13:52:00,
2013-03-17 07:02:00,44.0,18.0,29.89,WNW,284,15.0,27.0,35,-99.99,,,-99.99,0.000000,,2013-03-17 14:02:00,
2013-03-17 07:10:00,43.0,15.0,-100.00,West,267,22.0,38.0,31,-99.99,,,-99.99,20.000000,,2013-03-17 14:10:00,
2013-03-17 07:52:00,43.0,15.0,29.86,West,267,22.0,38.0,31,-99.99,,,-99.99,20.000000,,2013-03-17 14:52:00,
2013-03-17 08:02:00,43.0,15.0,-100.00,West,267,22.0,38.0,31,-99.99,,,-99.99,20.000000,,2013-03-17 15:02:00,
2013-03-17 08:10:00,46.0,14.0,29.89,South,181,11.0,26.0,27,-99.99,,,-99.99,230.000000,,2013-03-17 15:10:00,
2013-03-17 08:52:00,46.0,14.0,29.89,South,181,11.0,26.0,27,-99.99,,,-99.99,230.000000,,2013-03-17 15:52:00,
2013-03-17 09:03:00,46.0,14.0,29.89,South,181,11.0,26.0,27,-99.99,,,-99.99,230.000000,,2013-03-17 16:03:00,
2013-03-17 09:10:00,46.0,11.0,29.92,SSE,153,8.0,17.0,24,-99.99,,,-99.99,110.000000,,2013-03-17 16:10:00,
2013-03-17 09:52:00,46.0,11.0,29.92,SSE,153,8.0,17.0,24,-99.99,,,-99.99,110.000000,,2013-03-17 16:52:00,
2013-03-17 10:02:00,46.0,11.0,29.92,SSE,153,8.0,17.0,24,-99.99,,,-99.99,110.000000,,2013-03-17 17:02:00,
2013-03-17 10:10:00,49.0,8.0,29.92,South,178,11.0,23.0,18,-99.99,,,-99.99,560.000000,,2013-03-17 17:10:00,
2013-03-17 10:52:00,49.0,8.0,29.92,South,178,11.0,23.0,18,-99.99,,,-99.99,560.000000,,2013-03-17 17:52:00,
2013-03-17 11:10:00,51.0,10.0,29.92,West,268,25.0,33.0,19,-99.99,,,-99.99,800.000000,,2013-03-17 18:10:00,
2013-03-17 11:52:00,51.0,10.0,29.92,West,268,25.0,33.0,19,-99.99,,,-99.99,800.000000,,2013-03-17 18:52:00,
2013-03-17 12:02:00,51.0,10.0,29.92,West,268,25.0,33.0,19,-99.99,,,-99.99,800.000000,,2013-03-17 19:02:00,
2013-03-17 12:10:00,52.0,12.0,29.93,WNW,286,18.0,28.0,20,-99.99,,,-99.99,880.000000,,2013-03-17 19:10:00,
2013-03-17 12:53:00,52.0,12.0,29.93,WNW,286,18.0,28.0,20,-99.99,,,-99.99,880.000000,,2013-03-17 19:53:00,
2013-03-17 13:02:00,52.0,12.0,29.93,WNW,286,18.0,28.0,20,-99.99,,,-99.99,880.000000,,2013-03-17 20:02:00,
2013-03-17 13:10:00,53.0,12.0,29.93,WNW,289,13.0,30.0,19,-99.99,,,-99.99,890.000000,,2013-03-17 20:10:00,
2013-03-17 13:52:00,53.0,12.0,29.93,WNW,289,13.0,30.0,19,-99.99,,,-99.99,890.000000,,2013-03-17 20:52:00,
2013-03-17 14:02:00,53.0,12.0,29.93,WNW,289,13.0,30.0,19,-99.99,,,-99.99,890.000000,,2013-03-17 21:02:00,
2013-03-17 14:10:00,53.0,11.0,29.92,West,275,17.0,34.0,18,-99.99,,,-99.99,830.000000,,2013-03-17 21:10:00,
2013-03-17 14:52:00,53.0,11.0,29.92,West,275,17.0,34.0,18,-99.99,,,-99.99,830.000000,,2013-03-17 21:52:00,
2013-03-17 15:03:00,53.0,11.0,29.92,West,275,17.0,34.0,18,-99.99,,,-99.99,830.000000,,2013-03-17 22:03:00,
2013-03-17 16:10:00,53.0,10.0,29.90,NW,314,17.0,27.0,17,-99.99,,,-99.99,530.000000,,2013-03-17 23:10:00,
2013-03-17 17:03:00,53.0,10.0,29.90,NW,314,17.0,27.0,17,-99.99,,,-99.99,530.000000,,2013-03-18 00:03:00,
2013-03-17 17:10:00,52.0,9.0,29.91,WNW,298,15.0,25.0,17,-99.99,,,-99.99,320.000000,,2013-03-18 00:10:00,
2013-03-17 17:52:00,52.0,9.0,29.91,WNW,298,15.0,25.0,17,-99.99,,,-99.99,320.000000,,2013-03-18 00:52:00,
2013-03-17 18:01:00,52.0,9.0,29.91,WNW,298,15.0,25.0,17,-99.99,,,-99.99,320.000000,,2013-03-18 01:01:00,
2013-03-17 18:10:00,49.0,8.0,29.92,WNW,284,8.0,22.0,19,-99.99,,,-99.99,30.000000,,2013-03-18 01:10:00,
2013-03-17 18:52:00,49.0,8.0,29.92,WNW,284,8.0,22.0,19,-99.99,,,-99.99,30.000000,,2013-03-18 01:52:00,
2013-03-17 19:02:00,49.0,8.0,29.92,WNW,284,8.0,22.0,19,-99.99,,,-99.99,30.000000,,2013-03-18 02:02:00,
2013-03-17 19:10:00,47.0,8.0,29.93,WNW,295,13.0,20.0,20,-99.99,,,-99.99,0.000000,,2013-03-18 02:10:00,
2013-03-17 19:52:00,47.0,8.0,29.93,WNW,295,13.0,20.0,20,-99.99,,,-99.99,0.000000,,2013-03-18 02:52:00,
2013-03-17 20:02:00,47.0,8.0,29.93,WNW,295,13.0,20.0,20,-99.99,,,-99.99,0.000000,,2013-03-18 03:02:00,
2013-03-17 20:10:00,47.0,9.0,29.93,WNW,301,13.0,23.0,21,-99.99,,,-99.99,0.000000,,2013-03-18 03:10:00,
2013-03-17 20:52:00,47.0,9.0,29.93,WNW,301,13.0,23.0,21,-99.99,,,-99.99,0.000000,,2013-03-18 03:52:00,
2013-03-17 21:03:00,47.0,9.0,29.93,WNW,301,13.0,23.0,21,-99.99,,,-99.99,0.000000,,2013-03-18 04:03:00,
2013-03-17 21:10:00,46.0,7.0,29.95,WSW,257,5.0,16.0,20,-99.99,,,-99.99,0.000000,,2013-03-18 04:10:00,
2013-03-17 21:52:00,46.0,7.0,29.95,WSW,257,5.0,16.0,20,-99.99,,,-99.99,0.000000,,2013-03-18 04:52:00,
2013-03-17 22:02:00,46.0,7.0,29.95,WSW,257,5.0,16.0,20,-99.99,,,-99.99,0.000000,,2013-03-18 05:02:00,
2013-03-17 22:10:00,41.0,8.0,29.97,North,360,7.0,16.0,25,-99.99,,,-99.99,0.000000,,2013-03-18 05:10:00,
2013-03-17 22:52:00,41.0,8.0,29.97,North,360,7.0,16.0,25,-99.99,,,-99.99,0.000000,,2013-03-18 05:52:00,
2013-03-17 23:02:00,41.0,8.0,29.97,North,360,7.0,16.0,25,-99.99,,,-99.99,0.000000,,2013-03-18 06:02:00,